WFO RAH Logo

WFO RAH Text Data


RWRRAH
NORTH CAROLINA WEATHER ROUNDUP
NATIONAL WEATHER SERVICE RALEIGH NC
1000 AM EST THU FEB 01 2007

NOTE: "FAIR" INDICATES FEW OR NO CLOUDS BELOW 12,000 FEET WITH NO
SIGNIFICANT WEATHER AND/OR OBSTRUCTIONS TO VISIBILITY.

NCZ001-053-055-056-065-067-011600-
WESTERN NORTH CAROLINA
  
CITY           SKY/WX    TMP DP  RH WIND       PRES   REMARKS
ASHEVILLE      FRZ RAIN  29  25  85 S9        29.90F FOG     WCI  20  
JEFFERSON      CLOUDY    27  16  63 SE5       29.86S WCI  21          
HICKORY        CLOUDY    29  25  85 VRB3      29.98F                  
RUTHERFORDTON  RAIN      30  28  93 SE6       29.97F WCI  24          
MOUNT AIRY     CLOUDY    28  23  80 CALM      29.99S                  
$$
 
NCZ021-022-025-041-071-084-088-011600-
CENTRAL NORTH CAROLINA
  
CITY           SKY/WX    TMP DP  RH WIND       PRES   REMARKS
CHARLOTTE      LGT SNOW  32  30  92 CALM      30.02F FOG              
GREENSBORO     CLOUDY    30  28  92 S5        30.02F FOG     WCI  25  
WINSTON-SALEM  CLOUDY    31  27  85 S3        30.02F                  
RALEIGH-DURHAM SNOW      31  29  92 CALM      30.08S VSB 1/2          
FAYETTEVILLE   FRZ RAIN  32  30  92 CALM      30.09F VSB 3/4          
$$
 
NCZ011-015-027-028-043-044-047-080-103-011600-
NORTHEASTERN NORTH CAROLINA
  
CITY           SKY/WX    TMP DP  RH WIND       PRES   REMARKS
ROANOKE RAPIDS CLOUDY    33  17  51 VRB3      30.11F                  
ROCKY MT-WILSO SNOW      29  26  89 S5        30.12S VSB 1/2 WCI  24  
GREENVILLE     LGT SNOW  36  30  80 CALM      30.13F                  
WASHINGTON     LGT SNOW  34  30  86 CALM      30.14F                  
ELIZABETH CITY CLOUDY    36  25  64 S5        30.13F WCI  32          
MANTEO         LGT RAIN  39  25  56 CALM      30.15F                  
CAPE HATTERAS  CLOUDY    40  31  70 VRB6      30.15R                  
$$
 
NCZ078-087-090-091-093-098-101-011600-
SOUTHEASTERN NORTH CAROLINA
  
CITY           SKY/WX    TMP DP  RH WIND       PRES   REMARKS
LUMBERTON      LGT RAIN  34  32  93 NE7       30.08F FOG     WCI  28  
KINSTON        RAIN      32  32 100 CALM      30.12F                  
KENANSVILLE    RAIN      36  36 100 CALM      30.10F VSB 3/4          
NEW BERN       RAIN      33  30  88 N3        30.15S                  
CHERRY POINT   HVY RAIN  35  32  88 N8        30.14F FOG     WCI  29  
BEAUFORT       LGT RAIN  36  32  85 NE7       30.12S FOG     WCI  30  
JACKSONVILLE   LGT RAIN  34  31  88 NE7       30.13F FOG     WCI  28  
WILMINGTON     RAIN      36  32  87 N9        30.07F FOG     WCI  29  
$$